Location: Agadir Irigdalene
(31.2522°N, 8.7797°W)
Time: 04:53:03
(UTC+00:00)

Cosmos 2344 - Pass Details

Date: 01 December 2020
Orbit: 1244 x 2998 km, 63.3° (Epoch: 25 January)

Event Time Altitude Azimuth Distance (km) Brightness Sun altitude
Rises 20:20:23 0° 202° (SSW) 4,574 6.8 -35.3°
Reaches altitude 10° 20:23:27 10° 200° (SSW) 3,451 6.1 -36.0°
Enters shadow 20:28:28 42° 191° (S) 1,766 4.3 -37.0°
